Location: Écuvilly
(49.6505°N, 2.9206°E)
Time: 01:23:26
(UTC+00:00)

Geosat FO - Pass Details

Date: 17 November 2025
Orbit: 360 x 445 km, 108.0° (Epoch: 13 December)

Event Time Altitude Azimuth Distance (km) Brightness Sun altitude
Exits shadow 17:10:23 - 129° (SE) 1,723 7.0 -10.9°
Reaches altitude 10° 17:11:16 10° 124° (SE) 1,350 6.5 -11.0°
Maximum altitude 17:13:55 38° 54° (NE) 572 4.4 -11.4°
Drops below altitude 10° 17:16:36 10° 344° (NNW) 1,358 6.8 -11.9°
Sets 17:18:35 0° 336° (NNW) 2,214 8.0 -12.2°
